MESAT1

Last updated on Wed Sep 17 2025 00:03:09 GMT+0000 (Coordinated Universal Time)

1 60209U 24125G 25259.55265166 .00023819 00000+0 60089-3 0 9998 2 60209 97.2679 110.2370 0018381 137.2064 223.0617 15.39675002 67166
UTC large
Height (km)
Speed (km/s)
/
Latitude / Longitude
Inclination (degrees)
Orbital Period (minutes)
Azimuth
Elevation
Range (km)
Doppler Factor

Next 0 passes for location: London (51.5072 / 0.1276)

Sorry there are no passes over London.